This is the latest recevied weather packets stored in our database for station/object KC3SOZ. If no packets are shown the sender has not sent any weather packets the latest 10 day(s).
| Time | Temp. | Humidity | Pressure | Rain* | Wind** | Luminosity | Snow |
|---|---|---|---|---|---|---|---|
| 1777510383 | 10.56° C | 99% | 1009.3 hPa | 3.05 mm | - | 0 W/m² | - |
| 1777510079 | 10.56° C | 99% | 1009.2 hPa | 3.05 mm | - | 0 W/m² | - |
| 1777509776 | 10.56° C | 99% | 1009.1 hPa | 3.05 mm | - | 0 W/m² | - |
| 1777509471 | 10.56° C | 99% | 1008.6 hPa | 6.6 mm | - | 0 W/m² | - |
| 1777509170 | 10.56° C | 99% | 1008.7 hPa | 6.1 mm | - | 0 W/m² | - |
| 1777508866 | 10.56° C | 98% | 1008.5 hPa | 0 mm | - | 0 W/m² | - |
| 1777508563 | 10.56° C | 97% | 1008.7 hPa | 0 mm | - | 0 W/m² | - |
| 1777508260 | 10.56° C | 97% | 1008.5 hPa | 0 mm | - | 0 W/m² | - |
| 1777507957 | 10.56° C | 97% | 1008.9 hPa | 0 mm | - | 0 W/m² | - |
| 1777507654 | 10.56° C | 98% | 1008.8 hPa | 0 mm | - | 0 W/m² | - |
| 1777507351 | 10.56° C | 97% | 1008.8 hPa | 1.78 mm | - | 0 W/m² | - |
| 1777507048 | 10.56° C | 97% | 1008.5 hPa | 1.78 mm | - | 0 W/m² | - |
| 1777506746 | 11.11° C | 96% | 1008.4 hPa | 0 mm | - | 1 W/m² | - |
| 1777506442 | 11.11° C | 96% | 1008.1 hPa | 0 mm | - | 2 W/m² | - |
| 1777506138 | 10.56° C | 96% | 1008.6 hPa | 1.27 mm | - | 3 W/m² | - |
| 1777505833 | 11.11° C | 95% | 1008.7 hPa | 0 mm | - | 5 W/m² | - |
| 1777505530 | 11.11° C | 95% | 1008.8 hPa | 0 mm | - | 8 W/m² | - |
| 1777505227 | 11.11° C | 94% | 1008.9 hPa | 0 mm | - | 9 W/m² | - |
| 1777504924 | 11.11° C | 94% | 1009.4 hPa | 0 mm | - | 10 W/m² | - |
| 1777504621 | 11.11° C | 95% | 1009 hPa | 0 mm | - | 13 W/m² | - |
| 1777504316 | 11.11° C | 94% | 1008.8 hPa | 0 mm | - | 13 W/m² | - |
| 1777504012 | 11.11° C | 94% | 1009 hPa | 0 mm | - | 15 W/m² | - |
| 1777503709 | 11.11° C | 95% | 1009 hPa | 0 mm | - | 19 W/m² | - |
| 1777503406 | 11.11° C | 94% | 1009.1 hPa | 0 mm | - | 27 W/m² | - |
| 1777503102 | 11.11° C | 93% | 1009.2 hPa | 0 mm | - | 35 W/m² | - |
* Rain latest hour (hover to see other rain measurements)
** Current wind speed in m/s (hover to see current wind gust speed)